Wind_Speed
33 33 33 32 32 31 31 31 32 32 33 33 33 33 34 33 33 33 33 33 33 32 32 31 30 30 30 30 30 30 30 29 29 29 29 28 27 27 27 27 26 25 25
35 34 34 34 33 33 33 33 34 34 34 35 35 36 36 36 36 36 36 36 35 34 34 34 33 33 33 32 32 33 32 31 31 31 31 31 30 30 29 29 28 28 27
37 37 37 36 36 35 35 36 36 36 36 36 37 38 38 39 39 39 39 39 38 37 36 36 36 35 35 35 35 34 34 34 33 32 32 32 32 32 31 30 30 30 30
40 40 40 39 38 38 38 38 38 38 39 39 39 40 40 41 41 41 41 42 41 40 39 38 37 37 37 37 36 36 36 36 35 34 34 34 34 33 33 32 32 32 32
42 42 42 41 41 40 40 40 40 40 40 40 41 42 41 42 43 43 43 43 43 42 42 41 40 39 38 38 38 38 38 37 37 36 36 36 35 35 35 34 34 34 33
45 44 44 44 44 43 42 42 42 42 43 42 43 43 43 43 44 44 44 44 44 44 44 43 43 42 41 41 40 40 40 39 39 38 38 37 37 37 36 36 36 36 36
47 47 47 47 46 45 45 45 45 45 45 44 45 45 45 45 45 45 45 45 45 46 46 45 45 45 44 44 43 43 43 42 41 41 40 39 39 38 39 38 38 37 37
48 49 49 49 48 48 48 47 47 47 46 46 46 47 47 47 47 47 47 46 46 46 47 47 46 47 46 46 45 45 44 44 43 43 42 42 40 40 40 40 40 39 39
48 49 49 49 49 49 50 49 49 48 48 48 48 48 48 49 49 49 48 48 47 48 48 48 48 48 48 48 47 46 46 45 45 44 44 44 43 42 42 41 41 41 41
50 50 50 50 50 50 50 50 50 50 51 51 51 50 50 50 50 50 50 50 49 49 49 49 49 49 49 49 48 48 47 47 46 46 46 46 45 44 44 43 43 43 42
50 51 51 51 51 51 51 51 52 52 52 52 52 51 51 51 51 52 51 51 51 51 52 51 51 51 51 51 50 50 49 49 48 48 47 47 47 47 46 46 45 45 44
51 52 52 52 52 52 51 52 52 53 52 52 53 52 52 52 52 52 52 52 52 52 52 52 53 53 53 54 53 52 51 51 50 50 49 48 48 48 48 48 47 47 46
52 52 53 52 52 51 51 51 52 53 52 52 53 54 54 53 53 53 52 52 52 51 52 53 53 54 54 55 55 54 54 53 52 52 51 51 50 50 50 49 49 49 49
52 52 53 53 53 52 52 52 53 53 52 52 53 54 54 54 54 53 53 53 52 52 53 53 54 55 55 56 56 56 55 54 54 54 53 53 53 52 52 52 52 52 51
53 52 52 52 52 52 52 51 52 53 53 53 53 53 54 54 55 54 54 54 54 54 54 54 54 55 56 56 56 56 56 56 55 55 55 55 55 55 55 55 54 54 53
52 52 53 53 53 53 54 53 53 54 54 54 54 54 54 54 54 54 55 54 54 55 55 55 55 56 56 56 56 56 56 57 57 58 58 57 57 57 57 56 56 55 55
52 52 53 54 54 55 55 55 56 56 56 56 56 56 55 55 55 56 56 56 56 56 57 57 57 56 56 57 57 57 58 58 58 58 59 59 59 59 59 59 58 57 57
54 54 54 54 54 54 55 55 55 55 56 56 56 56 56 57 57 57 57 57 58 59 59 58 58 57 57 57 57 57 58 59 59 60 60 60 60 60 60 60 59 59 59
54 54 54 55 55 54 54 54 54 55 55 56 56 56 56 57 58 57 57 58 58 59 60 59 59 58 58 57 57 57 58 59 60 60 60 61 61 60 60 60 60 60 60
52 53 54 54 54 55 56 56 55 55 55 55 56 56 57 58 59 59 59 60 60 60 60 60 60 59 59 58 58 57 58 58 59 60 61 61 61 61 60 60 61 61 61
51 52 52 53 53 54 55 56 57 56 56 55 56 57 58 59 60 61 61 62 62 62 62 61 60 59 59 59 59 58 58 58 59 60 61 61 61 62 62 61 61 61 61
50 51 52 52 53 54 55 56 56 57 57 57 57 58 58 59 60 61 61 62 62 62 61 61 60 60 59 59 59 59 59 59 58 59 61 62 62 62 62 61 61 61 61
50 51 52 52 53 54 55 56 56 57 57 57 58 58 59 59 60 60 60 60 61 61 61 61 61 60 60 60 60 60 59 59 58 58 60 62 63 62 62 62 62 62 62
49 50 51 52 53 54 55 56 57 57 58 59 59 60 59 59 59 60 60 60 60 61 61 61 62 61 61 61 61 61 60 59 58 59 59 61 62 62 62 62 62 62 62
48 49 50 51 51 52 53 55 56 57 58 58 59 60 60 59 59 60 60 60 59 60 60 61 62 62 61 61 61 62 62 61 60 59 60 60 60 61 61 62 62 62 61
48 49 50 51 51 51 53 54 55 56 57 57 58 58 58 58 58 59 59 59 59 59 59 60 61 61 61 61 61 61 61 61 61 60 59 59 59 60 60 61 62 62 62
Wind_Direction
256 256 256 256 255 255 255 254 254 254 253 253 252 252 251 250 249 249 248 248 249 249 249 249 248 248 248 247 247 248 249 252 253 252 252 253 253 256 258 260 261 261 262
254 254 254 256 256 256 257 256 256 255 254 253 253 253 253 252 250 250 250 251 250 250 250 250 250 250 250 250 251 251 252 253 254 254 254 256 257 257 258 260 260 261 262
256 256 256 257 258 257 257 257 257 256 255 254 254 254 254 253 252 251 250 251 250 250 250 250 250 250 250 251 252 252 252 252 254 255 256 258 259 260 261 261 261 262 263
255 256 257 258 259 259 259 259 258 257 256 255 255 255 255 254 253 252 251 250 249 250 250 249 250 250 251 251 251 251 252 253 254 255 256 257 259 260 261 262 262 262 263
255 256 257 258 258 258 259 258 259 258 258 257 256 255 255 254 253 253 251 249 249 249 249 250 251 251 251 250 250 252 252 253 253 254 256 257 259 260 261 262 262 263 264
255 256 257 258 258 258 258 258 258 257 258 258 256 255 254 254 253 252 250 249 249 249 249 250 251 252 251 250 251 252 253 253 254 255 256 258 259 259 260 261 262 262 263
256 256 257 258 258 257 257 257 258 257 258 258 257 256 254 253 252 251 251 251 250 250 250 250 251 251 251 252 253 253 254 255 256 256 257 258 259 259 260 260 261 262 263
257 257 257 258 258 258 257 257 258 257 258 257 256 255 254 253 252 252 253 252 252 251 251 251 251 251 251 252 253 253 254 255 256 257 258 259 260 261 261 261 261 261 262
258 258 258 258 258 258 258 257 257 257 256 256 256 255 255 253 252 252 253 253 253 252 252 252 252 252 252 253 254 254 255 255 256 257 258 259 260 260 261 261 261 261 261
259 259 259 259 259 259 258 258 257 256 256 256 255 255 255 254 253 253 253 253 253 253 252 252 252 252 252 253 254 255 256 256 256 257 258 258 259 260 260 261 261 261 261
260 259 259 259 259 259 259 258 257 257 256 256 255 255 255 254 254 253 253 253 254 254 253 252 252 252 253 253 254 255 256 256 257 257 258 259 259 260 260 261 262 261 262
260 260 260 259 260 259 259 258 257 257 256 256 255 255 255 254 254 254 253 254 254 254 254 254 253 254 254 254 254 255 256 256 256 257 258 259 260 260 260 261 261 261 262
261 261 261 260 260 259 258 258 257 256 256 256 255 255 255 255 254 255 255 255 254 254 254 253 253 253 254 254 254 255 255 256 256 257 258 258 259 260 260 261 262 262 262
260 260 260 259 260 259 259 258 257 257 257 257 256 256 256 255 254 255 255 255 254 254 254 254 254 254 254 254 255 255 255 255 256 257 257 258 258 259 260 261 261 262 262
259 259 259 258 259 259 259 259 257 256 256 257 256 256 256 255 255 255 255 256 256 255 255 255 256 255 255 255 255 256 255 255 255 256 257 257 259 260 261 261 261 261 262
258 259 259 259 259 259 259 259 258 257 257 255 255 255 256 255 255 255 255 256 257 257 256 256 256 256 256 256 256 255 255 256 256 256 257 258 259 260 260 260 260 261 262
258 259 259 260 260 259 259 259 258 258 257 256 255 255 256 255 255 256 256 256 256 257 257 257 256 257 257 257 256 255 255 256 257 257 258 258 259 260 260 260 260 261 262
259 260 260 261 260 260 259 259 259 258 258 257 256 255 256 256 256 256 256 255 256 257 257 258 257 257 257 257 256 256 256 256 256 257 258 259 259 260 259 260 259 261 261
260 260 260 260 260 259 259 259 258 258 258 258 257 256 256 256 256 256 256 255 256 257 258 258 258 258 257 257 257 257 257 257 256 257 257 258 259 259 259 259 260 261 262
260 259 260 259 260 259 259 258 258 258 258 258 257 256 256 256 257 256 256 256 257 257 258 258 258 258 258 257 257 257 257 258 257 257 257 258 259 259 260 260 260 261 263
262 260 260 260 259 259 259 259 259 258 259 259 258 257 257 257 258 257 257 257 257 258 258 258 258 259 259 258 257 257 258 258 258 257 257 258 259 260 260 261 261 262 262
263 262 261 261 260 260 260 260 260 259 259 259 259 258 258 258 258 258 258 258 258 258 258 258 258 259 259 259 258 258 258 259 259 259 258 258 259 259 260 260 261 262 262
264 264 263 263 262 262 261 260 260 260 259 259 259 259 258 259 259 259 259 258 258 258 258 258 258 259 259 259 259 258 259 259 259 260 259 258 258 259 259 260 261 261 262
265 265 264 264 264 263 262 262 261 260 259 260 260 260 259 259 259 258 258 258 259 259 258 258 258 258 258 258 258 258 258 258 259 260 260 260 258 259 260 261 261 262 263
266 266 266 266 265 264 263 263 262 261 261 260 260 259 259 259 258 258 258 258 259 259 259 258 258 257 257 257 257 257 256 257 258 259 260 261 260 260 260 261 262 263 263
268 268 268 267 266 266 264 263 263 262 262 261 261 260 259 258 258 258 258 258 258 258 258 257 256 256 256 256 256 256 256 257 259 260 260 261 261 261 260 260 262 263 264
Height
5779 5780 5781 5782 5782 5783 5784 5785 5786 5787 5788 5790 5791 5792 5794 5795 5797 5799 5801 5803 5805 5806 5807 5809 5810 5812 5814 5815 5816 5818 5819 5820 5821 5823 5824 5824 5825 5826 5826 5827 5827 5828 5828
5771 5772 5773 5774 5775 5776 5777 5778 5778 5780 5781 5782 5783 5784 5786 5787 5789 5791 5793 5795 5797 5798 5800 5802 5803 5805 5806 5808 5810 5811 5813 5814 5815 5816 5817 5818 5819 5820 5820 5821 5821 5822 5822
5763 5764 5765 5766 5767 5768 5769 5769 5770 5771 5772 5774 5775 5776 5778 5779 5781 5783 5785 5787 5788 5790 5792 5794 5796 5797 5799 5800 5802 5804 5805 5807 5808 5809 5810 5811 5812 5813 5814 5815 5815 5815 5816
5753 5755 5756 5757 5758 5759 5760 5761 5762 5763 5763 5765 5766 5767 5769 5770 5772 5773 5775 5777 5780 5782 5784 5786 5788 5790 5791 5793 5794 5796 5797 5799 5800 5801 5803 5804 5805 5806 5807 5807 5808 5809 5809
5743 5745 5746 5747 5748 5749 5750 5751 5752 5753 5754 5755 5756 5757 5759 5760 5762 5764 5765 5768 5770 5772 5774 5776 5778 5781 5782 5784 5786 5787 5789 5790 5792 5793 5795 5796 5797 5798 5799 5800 5800 5801 5801
5733 5734 5735 5737 5738 5739 5740 5741 5742 5743 5744 5745 5746 5747 5749 5750 5751 5753 5755 5757 5760 5762 5764 5766 5769 5771 5773 5775 5776 5778 5780 5781 5783 5785 5786 5787 5788 5789 5790 5791 5792 5793 5793
5721 5723 5724 5725 5727 5728 5729 5730 5731 5732 5733 5734 5735 5736 5738 5739 5741 5743 5745 5747 5749 5751 5754 5756 5758 5761 5763 5765 5767 5768 5770 5772 5774 5775 5777 5778 5779 5780 5781 5782 5783 5784 5785
5709 5711 5712 5713 5715 5716 5717 5718 5720 5721 5722 5723 5724 5725 5726 5729 5730 5732 5734 5736 5738 5740 5743 5745 5747 5750 5752 5754 5756 5758 5760 5762 5763 5765 5767 5768 5769 5770 5771 5772 5773 5774 5775
5697 5698 5699 5701 5702 5703 5705 5706 5707 5708 5710 5711 5712 5713 5715 5717 5719 5721 5722 5724 5726 5729 5731 5733 5736 5738 5740 5743 5745 5747 5749 5751 5753 5755 5756 5758 5759 5760 5761 5762 5763 5764 5765
5684 5685 5686 5687 5689 5690 5691 5693 5694 5695 5696 5698 5699 5701 5703 5705 5707 5709 5711 5712 5714 5717 5719 5721 5724 5726 5728 5731 5733 5736 5738 5740 5742 5743 5745 5747 5748 5750 5751 5752 5753 5754 5755
5670 5671 5672 5673 5674 5676 5677 5678 5680 5681 5683 5684 5686 5688 5690 5691 5693 5695 5698 5700 5702 5704 5706 5709 5711 5714 5716 5719 5721 5724 5726 5728 5730 5732 5733 5735 5736 5738 5739 5740 5741 5742 5744
5656 5657 5658 5659 5660 5661 5662 5664 5665 5667 5669 5671 5672 5674 5676 5678 5680 5681 5684 5686 5688 5691 5693 5695 5698 5701 5703 5706 5708 5711 5713 5715 5717 5719 5721 5723 5724 5726 5727 5729 5730 5731 5732
5641 5643 5643 5644 5645 5646 5647 5649 5651 5652 5654 5656 5658 5660 5662 5664 5666 5668 5670 5672 5675 5677 5679 5682 5684 5687 5689 5691 5694 5697 5700 5702 5704 5706 5708 5710 5712 5713 5715 5716 5717 5719 5720
5627 5628 5628 5629 5630 5631 5633 5634 5636 5638 5639 5641 5643 5645 5647 5649 5652 5654 5656 5658 5661 5663 5665 5668 5670 5672 5675 5677 5680 5683 5685 5688 5690 5692 5694 5696 5699 5700 5702 5703 5705 5706 5707
5612 5612 5613 5614 5616 5617 5618 5619 5621 5623 5625 5626 5629 5630 5633 5635 5637 5639 5641 5644 5646 5649 5652 5654 5656 5658 5660 5662 5665 5667 5670 5673 5676 5678 5680 5682 5684 5686 5688 5689 5691 5692 5694
5597 5597 5599 5600 5601 5602 5603 5604 5606 5608 5609 5611 5613 5615 5617 5620 5622 5624 5627 5629 5631 5633 5636 5640 5641 5643 5645 5647 5649 5652 5655 5658 5660 5663 5666 5668 5669 5671 5673 5675 5676 5678 5680
5582 5583 5584 5585 5586 5587 5588 5589 5590 5592 5593 5595 5598 5600 5603 5605 5607 5609 5611 5613 5615 5617 5620 5624 5625 5627 5629 5632 5634 5636 5639 5642 5645 5647 5650 5652 5654 5656 5657 5659 5661 5663 5664
5567 5568 5569 5569 5570 5571 5572 5573 5574 5576 5578 5579 5581 5584 5586 5589 5591 5593 5596 5598 5600 5601 5603 5606 5609 5611 5614 5616 5618 5620 5623 5625 5628 5631 5633 5635 5638 5640 5641 5643 5645 5647 5648
5552 5553 5553 5554 5554 5555 5556 5557 5559 5560 5562 5564 5565 5568 5570 5572 5575 5577 5579 5581 5583 5585 5586 5589 5592 5594 5597 5599 5602 5604 5606 5609 5611 5614 5616 5618 5621 5623 5625 5626 5628 5630 5632
5537 5537 5537 5538 5539 5539 5540 5542 5543 5545 5546 5548 5549 5551 5553 5555 5557 5559 5562 5564 5565 5567 5569 5571 5574 5577 5580 5582 5585 5588 5590 5592 5594 5597 5599 5601 5603 5605 5608 5610 5612 5614 5615
5521 5522 5521 5522 5523 5523 5524 5525 5527 5529 5530 5532 5533 5535 5536 5538 5540 5542 5544 5546 5548 5549 5552 5554 5557 5559 5562 5565 5568 5571 5573 5575 5577 5579 5581 5584 5587 5590 5591 5593 5594 5596 5598
5506 5506 5506 5507 5507 5508 5508 5509 5510 5512 5514 5515 5517 5518 5519 5521 5522 5524 5526 5528 5530 5532 5534 5537 5540 5542 5545 5548 5551 5553 5555 5558 5561 5565 5565 5567 5569 5571 5574 5576 5578 5579 5581
5491 5491 5491 5491 5492 5492 5492 5493 5493 5495 5497 5498 5500 5501 5502 5504 5505 5506 5508 5510 5512 5514 5517 5520 5522 5525 5528 5532 5534 5537 5538 5541 5544 5546 5547 5550 5552 5554 5557 5558 5560 5562 5564
5477 5477 5476 5476 5476 5476 5476 5476 5476 5477 5479 5481 5482 5483 5484 5486 5487 5489 5491 5492 5494 5497 5499 5502 5505 5507 5510 5512 5515 5519 5521 5523 5526 5528 5529 5533 5535 5537 5539 5541 5543 5545 5546
5463 5462 5461 5461 5461 5460 5460 5460 5459 5460 5462 5463 5464 5465 5467 5469 5471 5472 5473 5476 5478 5479 5480 5483 5486 5488 5491 5494 5496 5499 5502 5505 5508 5511 5512 5515 5517 5519 5521 5523 5525 5526 5528
5449 5447 5446 5446 5445 5445 5444 5443 5443 5444 5445 5447 5448 5449 5450 5452 5453 5454 5455 5458 5460 5462 5463 5465 5467 5470 5472 5475 5478 5481 5484 5487 5490 5493 5496 5498 5499 5501 5504 5506 5507 5509 5510